QPF
0.00 0.00 0.00 0.00 0.00 0.00 0.00 0.00 0.00 0.00 0.00 0.00 0.00 0.00 0.00 0.00 0.00 0.00 0.00 0.00 0.00 0.00 0.00 0.00 0.00 0.00 0.00 0.00 0.00 0.00 0.00 0.00 0.00 0.00 0.00 0.00 0.00 0.00 0.00 0.00 0.00 0.01 0.01 0.01 0.02 0.02 0.02 0.02 0.02
0.00 0.00 0.00 0.00 0.00 0.00 0.00 0.00 0.00 0.00 0.00 0.00 0.00 0.00 0.00 0.00 0.00 0.00 0.00 0.00 0.00 0.00 0.00 0.00 0.00 0.00 0.00 0.00 0.00 0.00 0.00 0.00 0.00 0.00 0.00 0.00 0.00 0.00 0.00 0.00 0.00 0.00 0.00 0.00 0.01 0.01 0.01 0.02 0.02
0.00 0.00 0.00 0.00 0.00 0.00 0.00 0.00 0.00 0.00 0.00 0.00 0.00 0.00 0.00 0.00 0.00 0.00 0.00 0.00 0.00 0.00 0.00 0.00 0.00 0.00 0.00 0.00 0.00 0.00 0.00 0.00 0.00 0.00 0.00 0.00 0.00 0.00 0.00 0.00 0.00 0.00 0.00 0.00 0.00 0.00 0.01 0.01 0.01
0.00 0.00 0.00 0.00 0.00 0.00 0.00 0.00 0.00 0.00 0.00 0.00 0.00 0.00 0.00 0.00 0.00 0.00 0.00 0.00 0.00 0.00 0.00 0.00 0.00 0.00 0.00 0.00 0.00 0.00 0.00 0.00 0.00 0.00 0.00 0.00 0.00 0.00 0.00 0.00 0.00 0.00 0.00 0.00 0.00 0.00 0.00 0.00 0.01
0.00 0.00 0.00 0.00 0.00 0.00 0.00 0.00 0.00 0.00 0.00 0.00 0.00 0.00 0.00 0.00 0.00 0.00 0.00 0.00 0.00 0.00 0.00 0.00 0.00 0.00 0.00 0.00 0.00 0.00 0.00 0.00 0.00 0.00 0.00 0.00 0.00 0.00 0.00 0.00 0.00 0.00 0.00 0.00 0.00 0.00 0.00 0.00 0.00
0.00 0.00 0.00 0.00 0.00 0.00 0.00 0.00 0.00 0.00 0.00 0.00 0.00 0.00 0.00 0.00 0.00 0.00 0.00 0.00 0.00 0.00 0.00 0.00 0.00 0.00 0.00 0.00 0.00 0.00 0.00 0.00 0.00 0.00 0.00 0.00 0.00 0.00 0.00 0.00 0.00 0.00 0.00 0.01 0.00 0.00 0.00 0.00 0.00
0.00 0.00 0.00 0.00 0.00 0.00 0.00 0.00 0.00 0.00 0.00 0.00 0.00 0.00 0.00 0.00 0.00 0.00 0.00 0.00 0.00 0.00 0.00 0.00 0.00 0.00 0.00 0.00 0.00 0.00 0.00 0.00 0.00 0.00 0.00 0.00 0.00 0.00 0.00 0.00 0.00 0.00 0.00 0.01 0.00 0.00 0.00 0.00 0.00
0.00 0.00 0.00 0.00 0.00 0.00 0.00 0.00 0.00 0.00 0.00 0.00 0.00 0.00 0.00 0.00 0.00 0.00 0.00 0.00 0.00 0.00 0.00 0.00 0.00 0.00 0.00 0.00 0.00 0.00 0.00 0.00 0.00 0.00 0.00 0.00 0.00 0.00 0.00 0.00 0.00 0.00 0.00 0.00 0.00 0.00 0.00 0.00 0.00
0.00 0.00 0.00 0.00 0.00 0.00 0.00 0.00 0.00 0.00 0.00 0.00 0.00 0.00 0.00 0.00 0.00 0.00 0.00 0.00 0.00 0.00 0.00 0.00 0.00 0.00 0.00 0.00 0.00 0.00 0.00 0.00 0.00 0.00 0.00 0.00 0.00 0.00 0.00 0.00 0.00 0.00 0.00 0.00 0.00 0.00 0.00 0.00 0.00
0.00 0.00 0.00 0.00 0.00 0.00 0.00 0.00 0.00 0.00 0.00 0.00 0.00 0.00 0.00 0.00 0.00 0.00 0.00 0.00 0.00 0.00 0.00 0.00 0.00 0.00 0.00 0.00 0.00 0.00 0.00 0.00 0.00 0.00 0.00 0.00 0.00 0.00 0.00 0.00 0.00 0.00 0.00 0.00 0.00 0.00 0.00 0.00 0.00
0.00 0.00 0.00 0.00 0.00 0.00 0.00 0.00 0.00 0.00 0.00 0.00 0.00 0.00 0.00 0.00 0.00 0.00 0.00 0.00 0.00 0.00 0.00 0.00 0.00 0.00 0.00 0.00 0.00 0.00 0.00 0.00 0.00 0.00 0.00 0.00 0.00 0.00 0.00 0.00 0.00 0.00 0.00 0.00 0.00 0.00 0.00 0.00 0.00
0.00 0.00 0.00 0.00 0.00 0.00 0.00 0.00 0.00 0.00 0.00 0.00 0.00 0.00 0.00 0.00 0.00 0.00 0.00 0.00 0.00 0.00 0.00 0.00 0.00 0.00 0.00 0.00 0.00 0.00 0.00 0.00 0.00 0.00 0.00 0.00 0.00 0.00 0.00 0.00 0.00 0.00 0.00 0.00 0.00 0.00 0.00 0.00 0.00
0.00 0.00 0.00 0.00 0.00 0.00 0.00 0.00 0.00 0.00 0.00 0.00 0.00 0.00 0.00 0.00 0.00 0.00 0.00 0.00 0.00 0.00 0.00 0.00 0.00 0.00 0.00 0.00 0.00 0.00 0.00 0.00 0.00 0.00 0.00 0.00 0.00 0.00 0.00 0.00 0.00 0.00 0.00 0.00 0.00 0.00 0.00 0.00 0.00
0.00 0.00 0.00 0.00 0.00 0.00 0.00 0.00 0.00 0.00 0.00 0.00 0.00 0.00 0.00 0.00 0.00 0.00 0.00 0.00 0.00 0.00 0.00 0.00 0.00 0.00 0.00 0.00 0.00 0.00 0.00 0.00 0.00 0.00 0.00 0.00 0.00 0.00 0.00 0.00 0.00 0.00 0.00 0.00 0.00 0.00 0.00 0.00 0.00
0.00 0.00 0.00 0.00 0.00 0.00 0.00 0.00 0.00 0.00 0.00 0.00 0.00 0.00 0.00 0.00 0.00 0.00 0.00 0.00 0.00 0.00 0.00 0.00 0.00 0.00 0.00 0.00 0.00 0.00 0.00 0.00 0.00 0.00 0.00 0.00 0.00 0.00 0.00 0.00 0.00 0.00 0.00 0.00 0.00 0.00 0.00 0.00 0.00
0.00 0.00 0.00 0.00 0.00 0.00 0.00 0.00 0.00 0.00 0.00 0.00 0.00 0.00 0.00 0.00 0.00 0.00 0.00 0.00 0.00 0.00 0.00 0.00 0.00 0.00 0.00 0.00 0.00 0.00 0.00 0.00 0.00 0.00 0.00 0.00 0.00 0.00 0.00 0.00 0.00 0.00 0.00 0.00 0.00 0.00 0.00 0.00 0.00
0.00 0.00 0.00 0.00 0.00 0.00 0.00 0.00 0.00 0.00 0.00 0.00 0.00 0.00 0.00 0.00 0.00 0.00 0.00 0.00 0.00 0.00 0.00 0.00 0.00 0.00 0.00 0.00 0.00 0.00 0.00 0.00 0.00 0.00 0.00 0.00 0.00 0.00 0.00 0.00 0.00 0.00 0.00 0.00 0.00 0.00 0.00 0.00 0.00
0.00 0.00 0.00 0.00 0.00 0.00 0.00 0.00 0.00 0.00 0.00 0.00 0.00 0.00 0.00 0.00 0.00 0.00 0.00 0.00 0.00 0.00 0.00 0.00 0.00 0.00 0.00 0.00 0.00 0.00 0.00 0.00 0.00 0.00 0.00 0.00 0.00 0.00 0.00 0.00 0.00 0.00 0.00 0.00 0.00 0.00 0.00 0.00 0.00
0.00 0.00 0.00 0.00 0.00 0.00 0.00 0.00 0.00 0.00 0.00 0.00 0.00 0.00 0.00 0.00 0.00 0.00 0.00 0.00 0.00 0.00 0.00 0.00 0.00 0.00 0.00 0.00 0.00 0.00 0.00 0.00 0.00 0.00 0.00 0.00 0.00 0.00 0.00 0.00 0.00 0.00 0.00 0.00 0.00 0.00 0.00 0.00 0.00
0.00 0.00 0.00 0.00 0.00 0.00 0.00 0.00 0.00 0.00 0.00 0.00 0.00 0.00 0.00 0.00 0.00 0.00 0.00 0.00 0.00 0.00 0.00 0.00 0.00 0.00 0.00 0.00 0.00 0.00 0.00 0.00 0.00 0.00 0.00 0.00 0.00 0.00 0.00 0.00 0.00 0.00 0.00 0.00 0.00 0.00 0.00 0.00 0.00
0.00 0.00 0.00 0.00 0.00 0.00 0.00 0.00 0.00 0.00 0.00 0.00 0.00 0.00 0.00 0.00 0.00 0.00 0.00 0.00 0.00 0.00 0.00 0.00 0.00 0.00 0.00 0.00 0.00 0.00 0.00 0.00 0.00 0.00 0.00 0.00 0.00 0.00 0.00 0.00 0.00 0.00 0.00 0.00 0.00 0.00 0.00 0.00 0.00
0.00 0.00 0.00 0.00 0.00 0.00 0.00 0.00 0.00 0.00 0.00 0.00 0.00 0.00 0.00 0.00 0.00 0.00 0.00 0.00 0.00 0.00 0.00 0.00 0.00 0.00 0.00 0.00 0.00 0.00 0.00 0.00 0.00 0.00 0.00 0.00 0.00 0.00 0.00 0.00 0.00 0.00 0.00 0.00 0.00 0.00 0.00 0.00 0.00
0.00 0.00 0.00 0.00 0.00 0.00 0.00 0.00 0.00 0.00 0.00 0.00 0.00 0.00 0.00 0.00 0.00 0.00 0.00 0.00 0.00 0.00 0.00 0.00 0.00 0.00 0.00 0.00 0.00 0.00 0.00 0.00 0.00 0.00 0.00 0.00 0.00 0.00 0.00 0.00 0.00 0.00 0.00 0.00 0.00 0.00 0.00 0.00 0.00
0.00 0.00 0.00 0.00 0.00 0.00 0.00 0.00 0.00 0.00 0.00 0.00 0.00 0.00 0.00 0.00 0.00 0.00 0.00 0.00 0.00 0.00 0.00 0.00 0.00 0.00 0.00 0.00 0.00 0.00 0.00 0.00 0.00 0.00 0.00 0.00 0.00 0.00 0.00 0.00 0.00 0.00 0.00 0.00 0.00 0.00 0.00 0.00 0.00
0.00 0.00 0.00 0.00 0.00 0.00 0.00 0.00 0.00 0.00 0.00 0.00 0.00 0.00 0.00 0.00 0.00 0.00 0.00 0.00 0.00 0.00 0.00 0.00 0.00 0.00 0.00 0.00 0.00 0.00 0.00 0.00 0.00 0.00 0.00 0.00 0.00 0.00 0.00 0.00 0.00 0.00 0.00 0.00 0.00 0.00 0.00 0.00 0.00
0.00 0.00 0.00 0.00 0.00 0.00 0.00 0.00 0.00 0.00 0.00 0.00 0.00 0.00 0.00 0.00 0.00 0.00 0.00 0.00 0.00 0.00 0.00 0.00 0.00 0.00 0.00 0.00 0.00 0.00 0.00 0.00 0.00 0.00 0.00 0.00 0.00 0.00 0.00 0.00 0.00 0.00 0.00 0.00 0.00 0.00 0.00 0.00 0.00
0.00 0.00 0.00 0.00 0.00 0.00 0.00 0.00 0.00 0.00 0.00 0.00 0.00 0.00 0.00 0.00 0.00 0.00 0.00 0.00 0.00 0.00 0.00 0.00 0.00 0.00 0.00 0.00 0.00 0.00 0.00 0.00 0.00 0.00 0.00 0.00 0.00 0.00 0.00 0.00 0.00 0.00 0.00 0.00 0.00 0.00 0.00 0.00 0.00
0.00 0.00 0.00 0.00 0.00 0.00 0.00 0.00 0.00 0.00 0.00 0.00 0.00 0.00 0.00 0.00 0.00 0.00 0.00 0.00 0.00 0.00 0.00 0.00 0.00 0.00 0.00 0.00 0.00 0.00 0.00 0.00 0.00 0.00 0.00 0.00 0.00 0.00 0.00 0.00 0.00 0.00 0.00 0.00 0.00 0.00 0.00 0.00 0.00
0.00 0.00 0.00 0.00 0.00 0.00 0.00 0.00 0.00 0.00 0.00 0.00 0.00 0.00 0.00 0.00 0.00 0.00 0.00 0.00 0.00 0.00 0.00 0.00 0.00 0.00 0.00 0.00 0.00 0.00 0.00 0.00 0.00 0.00 0.00 0.00 0.00 0.00 0.00 0.00 0.00 0.00 0.00 0.01 0.01 0.01 0.01 0.01 0.01
0.00 0.00 0.00 0.00 0.00 0.00 0.00 0.00 0.00 0.00 0.00 0.00 0.00 0.00 0.00 0.00 0.00 0.00 0.00 0.00 0.00 0.00 0.00 0.00 0.00 0.00 0.00 0.00 0.00 0.00 0.00 0.00 0.00 0.00 0.00 0.00 0.00 0.00 0.00 0.00 0.00 0.01 0.01 0.02 0.02 0.02 0.02 0.02 0.02
MSLP
1013.64 1014.83 1016.56 1018.70 1021.08 1023.46 1025.63 1027.42 1028.72 1029.52 1029.93 1030.12 1030.25 1030.50 1030.95 1031.60 1032.36 1033.10 1033.63 1033.83 1033.62 1033.01 1032.08 1030.97 1029.85 1028.85 1028.06 1027.49 1027.09 1026.80 1026.52 1026.19 1025.78 1025.31 1024.80 1024.30 1023.85 1023.46 1023.11 1022.77 1022.38 1021.93 1021.40 1020.80 1020.16 1019.53 1018.92 1018.37 1017.86
1014.30 1015.85 1017.90 1020.27 1022.75 1025.11 1027.14 1028.70 1029.75 1030.31 1030.55 1030.63 1030.75 1031.04 1031.56 1032.28 1033.10 1033.83 1034.33 1034.46 1034.17 1033.49 1032.52 1031.41 1030.32 1029.37 1028.63 1028.10 1027.73 1027.45 1027.17 1026.84 1026.43 1025.96 1025.46 1024.98 1024.53 1024.13 1023.76 1023.37 1022.93 1022.41 1021.82 1021.18 1020.50 1019.84 1019.22 1018.65 1018.12
1015.19 1017.05 1019.32 1021.80 1024.26 1026.49 1028.31 1029.62 1030.42 1030.79 1030.91 1030.95 1031.10 1031.46 1032.07 1032.85 1033.69 1034.41 1034.85 1034.91 1034.56 1033.85 1032.88 1031.81 1030.79 1029.92 1029.25 1028.77 1028.43 1028.15 1027.86 1027.51 1027.08 1026.59 1026.09 1025.61 1025.15 1024.74 1024.33 1023.89 1023.39 1022.82 1022.18 1021.50 1020.81 1020.14 1019.52 1018.96 1018.42
1016.30 1018.37 1020.74 1023.21 1025.56 1027.58 1029.15 1030.21 1030.79 1031.02 1031.07 1031.13 1031.35 1031.81 1032.49 1033.31 1034.14 1034.81 1035.19 1035.18 1034.80 1034.09 1033.17 1032.19 1031.28 1030.52 1029.94 1029.52 1029.20 1028.90 1028.58 1028.18 1027.71 1027.20 1026.69 1026.19 1025.73 1025.29 1024.85 1024.37 1023.82 1023.20 1022.53 1021.82 1021.12 1020.47 1019.87 1019.32 1018.81
1017.58 1019.76 1022.13 1024.49 1026.63 1028.39 1029.69 1030.50 1030.92 1031.07 1031.13 1031.26 1031.58 1032.13 1032.87 1033.70 1034.49 1035.09 1035.38 1035.32 1034.91 1034.24 1033.42 1032.57 1031.80 1031.17 1030.69 1030.33 1030.01 1029.69 1029.31 1028.86 1028.34 1027.80 1027.27 1026.76 1026.29 1025.84 1025.38 1024.86 1024.28 1023.62 1022.91 1022.19 1021.49 1020.85 1020.28 1019.76 1019.26
1018.97 1021.17 1023.44 1025.60 1027.47 1028.94 1029.98 1030.60 1030.91 1031.05 1031.17 1031.41 1031.84 1032.47 1033.25 1034.06 1034.77 1035.27 1035.47 1035.35 1034.95 1034.34 1033.65 1032.96 1032.35 1031.86 1031.48 1031.16 1030.84 1030.48 1030.05 1029.54 1028.98 1028.41 1027.86 1027.36 1026.88 1026.43 1025.94 1025.40 1024.79 1024.10 1023.37 1022.64 1021.94 1021.31 1020.75 1020.24 1019.75
1020.42 1022.54 1024.63 1026.53 1028.10 1029.29 1030.09 1030.57 1030.83 1031.02 1031.25 1031.62 1032.17 1032.87 1033.65 1034.40 1035.01 1035.40 1035.50 1035.34 1034.96 1034.44 1033.89 1033.36 1032.92 1032.57 1032.27 1031.99 1031.66 1031.26 1030.77 1030.22 1029.62 1029.04 1028.49 1027.99 1027.52 1027.06 1026.57 1026.00 1025.36 1024.65 1023.90 1023.15 1022.44 1021.81 1021.25 1020.74 1020.25
1021.84 1023.83 1025.68 1027.28 1028.55 1029.47 1030.09 1030.48 1030.75 1031.03 1031.40 1031.91 1032.56 1033.30 1034.06 1034.73 1035.23 1035.49 1035.52 1035.33 1034.99 1034.57 1034.16 1033.79 1033.50 1033.26 1033.03 1032.76 1032.42 1031.98 1031.45 1030.86 1030.25 1029.67 1029.13 1028.65 1028.19 1027.73 1027.22 1026.64 1025.96 1025.22 1024.45 1023.68 1022.96 1022.31 1021.73 1021.21 1020.70
1023.18 1024.98 1026.57 1027.86 1028.85 1029.55 1030.02 1030.37 1030.69 1031.09 1031.60 1032.24 1032.97 1033.74 1034.45 1035.03 1035.41 1035.58 1035.54 1035.34 1035.06 1034.75 1034.47 1034.24 1034.07 1033.90 1033.71 1033.44 1033.08 1032.60 1032.05 1031.45 1030.85 1030.28 1029.78 1029.31 1028.87 1028.40 1027.87 1027.25 1026.55 1025.78 1024.97 1024.19 1023.45 1022.78 1022.17 1021.62 1021.07
1024.40 1025.97 1027.28 1028.30 1029.03 1029.55 1029.93 1030.28 1030.68 1031.19 1031.83 1032.58 1033.37 1034.13 1034.79 1035.28 1035.56 1035.65 1035.58 1035.40 1035.18 1034.98 1034.81 1034.70 1034.60 1034.48 1034.29 1034.00 1033.60 1033.10 1032.53 1031.94 1031.37 1030.85 1030.37 1029.94 1029.50 1029.02 1028.46 1027.81 1027.07 1026.26 1025.44 1024.64 1023.88 1023.19 1022.55 1021.95 1021.35
1025.46 1026.79 1027.83 1028.60 1029.13 1029.51 1029.84 1030.22 1030.70 1031.32 1032.07 1032.89 1033.70 1034.44 1035.04 1035.45 1035.67 1035.71 1035.64 1035.51 1035.37 1035.26 1035.19 1035.14 1035.07 1034.95 1034.73 1034.41 1033.97 1033.45 1032.88 1032.32 1031.80 1031.33 1030.89 1030.48 1030.04 1029.54 1028.95 1028.26 1027.48 1026.66 1025.82 1025.01 1024.25 1023.53 1022.86 1022.21 1021.56
1026.33 1027.43 1028.23 1028.78 1029.16 1029.45 1029.77 1030.19 1030.76 1031.47 1032.29 1033.14 1033.96 1034.66 1035.20 1035.55 1035.73 1035.77 1035.73 1035.66 1035.60 1035.58 1035.57 1035.55 1035.48 1035.32 1035.05 1034.67 1034.19 1033.65 1033.11 1032.59 1032.12 1031.70 1031.31 1030.91 1030.47 1029.94 1029.31 1028.59 1027.79 1026.96 1026.13 1025.33 1024.57 1023.84 1023.14 1022.44 1021.71
1027.00 1027.88 1028.48 1028.87 1029.15 1029.41 1029.74 1030.21 1030.85 1031.62 1032.48 1033.34 1034.13 1034.78 1035.27 1035.58 1035.75 1035.82 1035.83 1035.84 1035.87 1035.90 1035.93 1035.91 1035.81 1035.59 1035.25 1034.80 1034.29 1033.75 1033.22 1032.75 1032.34 1031.97 1031.61 1031.23 1030.77 1030.22 1029.56 1028.81 1028.01 1027.19 1026.38 1025.61 1024.86 1024.14 1023.41 1022.64 1021.83
1027.45 1028.14 1028.59 1028.87 1029.10 1029.36 1029.74 1030.27 1030.97 1031.78 1032.65 1033.49 1034.24 1034.84 1035.29 1035.58 1035.76 1035.87 1035.96 1036.04 1036.14 1036.22 1036.26 1036.21 1036.05 1035.76 1035.35 1034.85 1034.30 1033.77 1033.27 1032.85 1032.48 1032.16 1031.82 1031.44 1030.97 1030.39 1029.71 1028.96 1028.17 1027.37 1026.61 1025.87 1025.16 1024.44 1023.68 1022.85 1021.94
1027.68 1028.22 1028.56 1028.79 1029.01 1029.31 1029.75 1030.35 1031.09 1031.93 1032.79 1033.60 1034.30 1034.86 1035.27 1035.57 1035.77 1035.93 1036.09 1036.24 1036.39 1036.49 1036.52 1036.44 1036.22 1035.86 1035.39 1034.85 1034.29 1033.76 1033.30 1032.91 1032.59 1032.29 1031.96 1031.57 1031.08 1030.48 1029.80 1029.05 1028.29 1027.54 1026.83 1026.14 1025.46 1024.75 1023.96 1023.06 1022.06
1027.71 1028.13 1028.40 1028.61 1028.87 1029.23 1029.75 1030.41 1031.20 1032.05 1032.90 1033.67 1034.33 1034.86 1035.25 1035.55 1035.79 1036.01 1036.21 1036.42 1036.59 1036.70 1036.72 1036.59 1036.32 1035.91 1035.41 1034.85 1034.29 1033.79 1033.35 1033.00 1032.70 1032.40 1032.07 1031.65 1031.14 1030.52 1029.84 1029.11 1028.39 1027.69 1027.04 1026.41 1025.77 1025.06 1024.24 1023.28 1022.18
1027.55 1027.88 1028.12 1028.36 1028.67 1029.11 1029.71 1030.43 1031.26 1032.12 1032.95 1033.69 1034.32 1034.83 1035.23 1035.54 1035.82 1036.07 1036.32 1036.55 1036.73 1036.84 1036.82 1036.67 1036.36 1035.93 1035.42 1034.87 1034.34 1033.86 1033.46 1033.12 1032.82 1032.51 1032.14 1031.69 1031.15 1030.52 1029.84 1029.14 1028.46 1027.83 1027.24 1026.66 1026.04 1025.34 1024.50 1023.49 1022.33
1027.26 1027.53 1027.76 1028.04 1028.42 1028.94 1029.60 1030.38 1031.23 1032.09 1032.91 1033.64 1034.26 1034.77 1035.18 1035.53 1035.83 1036.12 1036.39 1036.63 1036.81 1036.89 1036.85 1036.67 1036.36 1035.93 1035.44 1034.93 1034.45 1034.01 1033.62 1033.29 1032.96 1032.61 1032.20 1031.70 1031.12 1030.48 1029.80 1029.13 1028.51 1027.93 1027.39 1026.86 1026.27 1025.57 1024.72 1023.69 1022.49
1026.89 1027.12 1027.37 1027.69 1028.14 1028.72 1029.43 1030.23 1031.09 1031.95 1032.76 1033.48 1034.10 1034.64 1035.09 1035.48 1035.83 1036.14 1036.43 1036.66 1036.81 1036.87 1036.81 1036.62 1036.32 1035.93 1035.49 1035.04 1034.60 1034.20 1033.83 1033.48 1033.11 1032.70 1032.22 1031.67 1031.05 1030.39 1029.72 1029.08 1028.50 1027.97 1027.48 1026.98 1026.42 1025.74 1024.90 1023.87 1022.68
1026.52 1026.73 1027.00 1027.37 1027.85 1028.47 1029.20 1030.00 1030.84 1031.67 1032.47 1033.20 1033.85 1034.42 1034.93 1035.38 1035.78 1036.13 1036.42 1036.64 1036.77 1036.80 1036.72 1036.54 1036.27 1035.93 1035.56 1035.17 1034.80 1034.43 1034.06 1033.68 1033.25 1032.77 1032.21 1031.60 1030.93 1030.25 1029.59 1028.97 1028.42 1027.93 1027.47 1027.00 1026.47 1025.82 1025.01 1024.03 1022.89
1026.23 1026.45 1026.74 1027.13 1027.63 1028.25 1028.94 1029.70 1030.49 1031.28 1032.05 1032.79 1033.48 1034.12 1034.70 1035.23 1035.70 1036.09 1036.40 1036.61 1036.72 1036.72 1036.63 1036.46 1036.22 1035.94 1035.64 1035.32 1034.99 1034.65 1034.28 1033.85 1033.36 1032.80 1032.17 1031.48 1030.77 1030.07 1029.41 1028.81 1028.28 1027.81 1027.37 1026.92 1026.41 1025.80 1025.05 1024.15 1023.11
1026.10 1026.33 1026.64 1027.04 1027.53 1028.10 1028.73 1029.40 1030.10 1030.82 1031.56 1032.29 1033.02 1033.74 1034.42 1035.05 1035.59 1036.04 1036.37 1036.58 1036.68 1036.66 1036.56 1036.40 1036.19 1035.96 1035.72 1035.46 1035.17 1034.84 1034.45 1033.98 1033.42 1032.78 1032.08 1031.33 1030.58 1029.86 1029.20 1028.60 1028.08 1027.61 1027.17 1026.73 1026.23 1025.65 1024.97 1024.17 1023.26
1026.17 1026.42 1026.75 1027.14 1027.59 1028.08 1028.59 1029.14 1029.72 1030.35 1031.03 1031.76 1032.53 1033.33 1034.11 1034.85 1035.49 1036.00 1036.38 1036.60 1036.69 1036.66 1036.55 1036.39 1036.20 1036.01 1035.80 1035.58 1035.31 1034.98 1034.57 1034.05 1033.44 1032.73 1031.97 1031.18 1030.40 1029.65 1028.97 1028.37 1027.83 1027.34 1026.88 1026.41 1025.92 1025.37 1024.74 1024.05 1023.28
1026.43 1026.72 1027.06 1027.43 1027.81 1028.20 1028.58 1028.97 1029.41 1029.92 1030.53 1031.25 1032.05 1032.93 1033.82 1034.66 1035.41 1036.01 1036.43 1036.68 1036.77 1036.73 1036.60 1036.43 1036.25 1036.06 1035.87 1035.66 1035.40 1035.06 1034.62 1034.07 1033.41 1032.66 1031.86 1031.03 1030.22 1029.45 1028.75 1028.11 1027.53 1026.99 1026.48 1025.97 1025.44 1024.90 1024.33 1023.72 1023.09
1026.84 1027.16 1027.52 1027.87 1028.18 1028.45 1028.68 1028.92 1029.20 1029.59 1030.12 1030.81 1031.65 1032.59 1033.57 1034.53 1035.38 1036.06 1036.55 1036.82 1036.92 1036.87 1036.72 1036.53 1036.33 1036.13 1035.93 1035.71 1035.44 1035.09 1034.62 1034.04 1033.36 1032.58 1031.75 1030.91 1030.08 1029.28 1028.54 1027.84 1027.19 1026.57 1025.97 1025.38 1024.80 1024.24 1023.69 1023.15 1022.62
1027.33 1027.69 1028.05 1028.37 1028.62 1028.77 1028.87 1028.96 1029.10 1029.37 1029.83 1030.49 1031.33 1032.33 1033.40 1034.45 1035.40 1036.16 1036.70 1037.01 1037.12 1037.06 1036.89 1036.67 1036.43 1036.20 1035.97 1035.72 1035.42 1035.05 1034.57 1033.98 1033.28 1032.50 1031.67 1030.81 1029.96 1029.13 1028.33 1027.56 1026.81 1026.08 1025.36 1024.66 1024.00 1023.38 1022.82 1022.32 1021.87
1027.80 1028.19 1028.57 1028.86 1029.04 1029.10 1029.08 1029.05 1029.07 1029.25 1029.64 1030.27 1031.13 1032.17 1033.30 1034.43 1035.45 1036.28 1036.87 1037.22 1037.33 1037.26 1037.07 1036.81 1036.53 1036.25 1035.98 1035.69 1035.36 1034.96 1034.47 1033.88 1033.19 1032.41 1031.59 1030.73 1029.87 1029.00 1028.13 1027.26 1026.40 1025.53 1024.67 1023.84 1023.07 1022.38 1021.78 1021.29 1020.87
1028.17 1028.58 1028.95 1029.21 1029.34 1029.33 1029.23 1029.11 1029.06 1029.18 1029.53 1030.14 1031.00 1032.07 1033.24 1034.42 1035.50 1036.38 1037.01 1037.38 1037.51 1037.44 1037.22 1036.93 1036.61 1036.28 1035.96 1035.63 1035.26 1034.84 1034.34 1033.75 1033.08 1032.33 1031.52 1030.67 1029.78 1028.87 1027.93 1026.96 1025.96 1024.95 1023.95 1022.99 1022.09 1021.31 1020.66 1020.15 1019.76
1028.40 1028.79 1029.13 1029.36 1029.44 1029.39 1029.25 1029.09 1029.01 1029.10 1029.44 1030.05 1030.92 1032.00 1033.19 1034.40 1035.50 1036.41 1037.07 1037.46 1037.61 1037.53 1037.31 1037.00 1036.64 1036.27 1035.90 1035.53 1035.13 1034.69 1034.18 1033.60 1032.95 1032.23 1031.44 1030.60 1029.70 1028.75 1027.74 1026.68 1025.56 1024.42 1023.28 1022.19 1021.19 1020.32 1019.61 1019.07 1018.68
1028.46 1028.80 1029.07 1029.25 1029.29 1029.21 1029.06 1028.91 1028.84 1028.96 1029.32 1029.95 1030.83 1031.92 1033.11 1034.32 1035.42 1036.34 1037.02 1037.43 1037.59 1037.53 1037.32 1037.00 1036.62 1036.23 1035.82 1035.41 1034.99 1034.53 1034.02 1033.45 1032.82 1032.12 1031.36 1030.53 1029.63 1028.66 1027.60 1026.45 1025.25 1024.00 1022.76 1021.57 1020.48 1019.55 1018.79 1018.22 1017.81
Thickness
5746 5746 5744 5730 5701 5663 5632 5630 5634 5629 5624 5621 5619 5616 5609 5602 5600 5585 5582 5584 5588 5592 5597 5602 5607 5610 5613 5616 5618 5620 5622 5624 5626 5628 5630 5632 5634 5636 5639 5641 5643 5647 5651 5655 5659 5664 5669 5675 5680
5747 5746 5733 5710 5675 5639 5628 5630 5630 5628 5625 5621 5618 5613 5607 5600 5595 5588 5582 5582 5584 5588 5592 5597 5600 5604 5606 5608 5610 5611 5613 5614 5616 5617 5619 5620 5622 5624 5627 5629 5632 5635 5638 5642 5647 5651 5656 5662 5667
5749 5742 5712 5682 5647 5633 5630 5630 5628 5624 5623 5622 5614 5607 5599 5594 5589 5582 5578 5578 5580 5584 5588 5591 5594 5596 5598 5599 5600 5602 5602 5603 5604 5605 5606 5607 5608 5610 5613 5615 5619 5622 5626 5630 5634 5638 5643 5648 5654
5745 5724 5697 5666 5633 5629 5631 5630 5630 5626 5624 5619 5611 5597 5588 5583 5582 5577 5575 5575 5578 5580 5581 5583 5585 5587 5588 5589 5589 5590 5590 5591 5591 5592 5592 5593 5594 5595 5598 5600 5603 5607 5611 5616 5620 5625 5630 5635 5640
5737 5712 5676 5643 5631 5630 5629 5630 5630 5626 5618 5613 5605 5590 5581 5577 5575 5573 5572 5573 5575 5574 5574 5575 5576 5577 5577 5578 5578 5577 5577 5578 5577 5577 5577 5578 5578 5579 5581 5583 5586 5590 5595 5599 5604 5609 5614 5620 5625
5719 5699 5664 5637 5632 5631 5630 5629 5627 5621 5616 5610 5600 5586 5576 5574 5572 5570 5569 5570 5569 5568 5566 5566 5566 5566 5566 5566 5565 5564 5563 5563 5562 5561 5561 5560 5560 5561 5563 5564 5567 5571 5575 5580 5585 5590 5596 5603 5609
5707 5680 5651 5640 5636 5634 5631 5628 5622 5616 5611 5606 5600 5583 5575 5572 5569 5567 5566 5565 5563 5561 5559 5557 5556 5555 5554 5553 5551 5549 5548 5547 5545 5543 5542 5541 5540 5541 5542 5543 5546 5550 5554 5559 5564 5570 5577 5584 5590
5707 5683 5654 5646 5642 5637 5632 5627 5619 5614 5606 5601 5597 5581 5573 5571 5567 5564 5562 5560 5558 5554 5551 5548 5545 5543 5541 5539 5536 5533 5531 5529 5526 5524 5522 5520 5519 5519 5520 5521 5524 5527 5531 5535 5540 5547 5554 5562 5569
5710 5678 5656 5652 5647 5637 5632 5623 5614 5607 5601 5595 5589 5585 5578 5570 5564 5559 5557 5555 5552 5548 5543 5538 5535 5531 5528 5526 5521 5517 5514 5510 5507 5504 5501 5499 5497 5496 5496 5497 5499 5502 5505 5508 5513 5520 5528 5537 5546
5695 5665 5658 5654 5650 5638 5632 5624 5613 5606 5595 5587 5582 5577 5572 5565 5558 5555 5552 5547 5542 5537 5532 5527 5523 5520 5517 5513 5509 5503 5498 5493 5488 5484 5480 5476 5473 5471 5470 5470 5471 5473 5476 5479 5485 5491 5499 5508 5518
5675 5659 5653 5649 5646 5640 5631 5622 5615 5604 5596 5586 5579 5571 5565 5558 5553 5549 5542 5536 5530 5525 5521 5517 5512 5509 5505 5500 5495 5488 5482 5476 5470 5463 5458 5453 5449 5445 5443 5442 5441 5442 5445 5448 5453 5460 5468 5477 5488
5665 5654 5653 5648 5645 5637 5626 5619 5610 5606 5600 5590 5579 5570 5561 5553 5547 5541 5534 5527 5521 5516 5512 5507 5501 5497 5491 5485 5479 5471 5464 5456 5449 5441 5434 5428 5422 5417 5413 5410 5408 5408 5410 5413 5418 5425 5434 5445 5456
5661 5651 5644 5639 5635 5628 5621 5612 5605 5596 5587 5580 5571 5563 5554 5547 5539 5533 5526 5520 5513 5507 5501 5496 5490 5484 5477 5469 5461 5452 5443 5434 5425 5416 5407 5399 5392 5386 5381 5378 5375 5374 5375 5378 5384 5391 5400 5411 5424
5652 5646 5641 5637 5632 5626 5615 5606 5600 5588 5580 5572 5565 5556 5548 5541 5534 5526 5519 5511 5504 5497 5490 5484 5477 5468 5460 5451 5442 5431 5421 5410 5400 5389 5379 5370 5362 5356 5352 5349 5347 5345 5345 5348 5352 5359 5368 5378 5390
5654 5645 5640 5635 5628 5619 5612 5604 5597 5586 5574 5566 5558 5551 5544 5535 5528 5519 5511 5503 5494 5486 5478 5471 5463 5452 5443 5432 5421 5409 5398 5386 5375 5364 5354 5345 5337 5331 5326 5323 5320 5319 5319 5321 5325 5332 5339 5349 5361
5653 5644 5639 5632 5624 5615 5612 5613 5597 5580 5571 5560 5552 5544 5537 5530 5521 5512 5503 5494 5485 5475 5466 5456 5447 5437 5425 5413 5400 5388 5376 5364 5352 5342 5332 5323 5316 5309 5304 5300 5297 5296 5295 5297 5301 5307 5313 5322 5333
5648 5643 5641 5630 5621 5613 5607 5608 5593 5577 5570 5557 5547 5539 5532 5523 5514 5505 5495 5485 5475 5463 5452 5443 5433 5422 5410 5396 5382 5368 5355 5343 5332 5322 5313 5304 5297 5290 5284 5280 5277 5275 5274 5275 5278 5283 5288 5298 5309
5653 5644 5640 5632 5621 5610 5603 5600 5589 5574 5567 5554 5543 5535 5528 5519 5509 5498 5487 5476 5464 5452 5441 5430 5420 5408 5395 5381 5367 5352 5338 5326 5315 5305 5296 5287 5280 5273 5268 5264 5260 5258 5257 5258 5259 5262 5268 5274 5285
5656 5646 5640 5633 5623 5612 5603 5598 5587 5572 5563 5548 5538 5531 5523 5514 5502 5490 5478 5466 5453 5441 5430 5419 5408 5395 5381 5367 5353 5340 5328 5315 5303 5291 5281 5272 5264 5259 5254 5250 5247 5244 5243 5243 5244 5247 5252 5256 5264
5651 5643 5636 5628 5620 5611 5602 5595 5585 5571 5562 5551 5540 5529 5519 5507 5494 5482 5470 5456 5443 5431 5419 5408 5394 5380 5366 5351 5336 5323 5312 5301 5290 5278 5267 5258 5251 5246 5242 5238 5235 5233 5231 5231 5231 5233 5237 5241 5243
5648 5642 5635 5627 5615 5604 5600 5599 5581 5572 5562 5551 5538 5528 5515 5502 5488 5476 5463 5449 5434 5421 5408 5396 5381 5366 5351 5337 5324 5312 5303 5291 5281 5271 5260 5249 5241 5234 5229 5226 5223 5220 5219 5219 5219 5220 5222 5226 5230
5642 5641 5633 5622 5609 5599 5599 5591 5590 5567 5557 5546 5533 5519 5507 5497 5483 5469 5455 5441 5426 5411 5397 5383 5367 5353 5338 5323 5311 5298 5288 5278 5267 5257 5248 5239 5230 5223 5218 5213 5210 5207 5205 5205 5205 5208 5209 5212 5217
5641 5637 5628 5619 5609 5598 5589 5580 5588 5562 5553 5544 5528 5513 5501 5489 5476 5462 5448 5433 5417 5401 5386 5370 5355 5341 5326 5311 5298 5286 5274 5263 5254 5246 5238 5230 5222 5213 5206 5201 5196 5192 5190 5189 5190 5192 5194 5198 5203
5638 5629 5618 5605 5597 5598 5595 5578 5590 5557 5554 5548 5530 5511 5497 5483 5469 5455 5440 5424 5407 5390 5375 5360 5345 5330 5315 5302 5289 5276 5265 5255 5246 5238 5229 5221 5213 5204 5196 5188 5181 5176 5173 5171 5172 5175 5178 5183 5189
5632 5622 5610 5609 5600 5599 5590 5582 5587 5577 5557 5547 5530 5510 5492 5477 5461 5447 5431 5413 5397 5381 5366 5350 5335 5320 5307 5293 5280 5268 5257 5246 5236 5227 5219 5210 5202 5193 5184 5174 5166 5159 5154 5152 5152 5156 5161 5167 5174
5628 5621 5606 5598 5590 5588 5586 5580 5585 5566 5551 5539 5525 5506 5488 5471 5455 5440 5423 5405 5388 5373 5358 5342 5326 5312 5299 5286 5273 5261 5250 5239 5228 5217 5207 5197 5188 5179 5170 5159 5149 5141 5135 5132 5132 5136 5142 5151 5160
5626 5609 5606 5588 5582 5575 5581 5582 5579 5554 5542 5527 5512 5497 5482 5466 5450 5433 5415 5397 5381 5365 5350 5334 5319 5305 5291 5279 5267 5256 5245 5233 5222 5211 5200 5189 5179 5168 5157 5145 5135 5127 5121 5117 5115 5118 5125 5134 5145
5623 5606 5591 5586 5582 5576 5580 5579 5581 5564 5540 5523 5506 5491 5477 5461 5443 5425 5407 5390 5375 5359 5343 5327 5312 5297 5284 5272 5261 5251 5239 5228 5217 5206 5195 5183 5172 5159 5147 5136 5126 5118 5112 5108 5106 5107 5113 5121 5133
5618 5608 5594 5577 5573 5567 5563 5585 5585 5574 5551 5530 5511 5491 5474 5456 5437 5418 5401 5384 5368 5352 5336 5321 5306 5292 5280 5268 5257 5246 5235 5224 5212 5201 5190 5178 5166 5154 5141 5130 5120 5114 5110 5106 5104 5104 5107 5115 5126
5621 5613 5594 5589 5579 5555 5543 5577 5577 5562 5548 5530 5510 5490 5470 5451 5431 5413 5395 5379 5362 5346 5331 5316 5301 5288 5276 5265 5254 5242 5231 5220 5209 5199 5187 5175 5162 5149 5137 5126 5118 5114 5111 5109 5107 5107 5109 5113 5122